This demonstration page uses our WeatherBlox Daily Observations layout. Learn more.

Left ArrowRight Arrow

38.20091, -84.87328

Hourly Observations for July 21, 2017

Temp ( °F °C ) Dew Point ( °F °C ) Humidity (%) Winds ( mph kmh ) Pressure ( in mb ) Visibility ( mi km ) Precip ( " mm )
12:53 am 00:53 Mostly Cloudy 78 25.6 72 22.2 82 82 SSW 5 7 30.00 1016 8 13 0.00 0.00
1:53 am 01:53 Clear 77 25 72 22.2 85 85 SW 3 6 29.99 1016 8 13 0.00 0.00
2:53 am 02:53 Clear 76 24.4 72 22.2 88 88 SW 5 7 29.98 1015 7 11 0.00 0.00
3:53 am 03:53 Hazy 76 24.4 71 21.7 85 85 SW 6 9 29.97 1015 6 10 0.00 0.00
4:53 am 04:53 Clear 77 25 71 21.7 82 82 WSW 3 6 29.97 1015 7 11 0.00 0.00
5:53 am 05:53 Mostly Cloudy 76 24.4 71 21.7 85 85 Calm 29.98 1015 7 11 0.00 0.00
6:53 am 06:53 Hazy 76 24.4 71 21.7 85 85 Calm 29.99 1016 5 8 0.00 0.00
7:53 am 07:53 Cloudy with Haze 77 25 72 22.2 85 85 Calm 30.01 1016 5 8 0.00 0.00
8:53 am 08:53 Cloudy 79 26.1 73 22.8 82 82 WSW 7 11 30.02 1017 7 11 0.00 0.00
9:53 am 09:53 Mostly Cloudy 81 27.2 73 22.8 77 77 NNW 5 7 30.06 1018 7 11 0.00 0.00
10:08 am 10:08 Mostly Cloudy 82 27.8 73 22.8 74 74 NNW 5 7 30.06 1018 7 11 0.00 0.00
10:15 am 10:15 Partly Cloudy 83 28.3 74 23.3 74 74 Calm 30.03 1017 7 11 0.00 0.00
10:53 am 10:53 Mostly Sunny 85 29.4 74 23.3 70 70 VRB 5 7 30.03 1017 8 13 0.00 0.00
11:53 am 11:53 Sunny 87 30.6 73 22.8 63 63 VRB 6 9 30.02 1017 10 16 0.00 0.00
12:53 pm 12:53 Sunny 88 31.1 74 23.3 63 63 SSW 9 15 30.01 1016 9 14 0.00 0.00
1:53 pm 13:53 Mostly Sunny 91 32.8 73 22.8 56 56 SW 7 11 29.99 1016 10 16 0.00 0.00
2:53 pm 14:53 Sunny 93 33.9 71 21.7 49 49 SSW 10 17 29.98 1015 10 16 0.00 0.00
3:53 pm 15:53 Sunny 92 33.3 71 21.7 51 51 SSW 8 13 29.96 1015 10 16 0.00 0.00
4:53 pm 16:53 Sunny 93 33.9 73 22.8 52 52 WSW 8 13 29.95 1014 10 16 0.00 0.00
5:53 pm 17:53 Mostly Sunny 92 33.3 73 22.8 54 54 W 7 11 29.93 1014 10 16 0.00 0.00
6:08 pm 18:08 Sunny with Nearby Thunderstorms 93 33.9 71 21.7 49 49 W 6 9 29.91 1013 10 16 0.00 0.00
6:23 pm 18:23 Sunny 93 33.9 71 21.7 49 49 VRB 7 11 29.91 1013 10 16 0.00 0.00
6:50 pm 18:50 Sunny with Nearby Thunderstorms 91 33 70 21 49 49 WSW 7 11 29.88 1012 10 16 0.00 0.00
6:53 pm 18:53 Sunny with Nearby Thunderstorms 92 33.3 70 21.1 49 49 WSW 9 15 29.92 1013 10 16 0.00 0.00
7:05 pm 19:05 Sunny 92 33.3 70 21.1 49 49 SW 8 13 29.88 1012 10 16 0.00 0.00
7:53 pm 19:53 Sunny 91 32.8 72 22.2 54 54 VRB 3 6 29.92 1013 10 16 0.00 0.00
8:53 pm 20:53 Sunny 86 30 74 23.3 67 67 Calm 29.91 1013 10 16 0.00 0.00
9:53 pm 21:53 Clear 81 27.2 74 23.3 79 79 S 3 6 29.93 1014 10 16 0.00 0.00
10:53 pm 22:53 Clear 82 27.8 73 22.8 74 74 SW 3 6 29.94 1014 10 16 0.00 0.00
11:53 pm 23:53 Clear 81 27.2 73 22.8 77 77 SW 3 6 29.95 1014 8 13 0.00 0.00

Powered by AerisWeather